Alamosa, CO

9:18 PM MDT on August 23, 2019 (GMT -0600)
San Luis Valley Regional / Bergman Field

Weather History for KALS - June, 2019

Change the Weather History Date:

Wednesday, June 12, 2019

  Actual Average Record
Temperature  
Mean Temperature 58 °F 59 °F  
Max Temperature 79 °F 78 °F 88 °F (2006)
Min Temperature 37 °F 40 °F 25 °F (2008)
Degree Days  
Heating Degree Days 7 6  
Month to date heating degree days 91 94  
Since 1 June heating degree days 91 94  
Since 1 July heating degree days 8516 8520  
Cooling Degree Days 0 0  
Month to date cooling degree days 0 0  
Year to date cooling degree days 0 0  
Since 1 June cooling degree days 0 0  
Growing Degree Days 8 (Base 50)    
Moisture  
Dew Point 33 °F    
Average Humidity 51    
Maximum Humidity 85    
Minimum Humidity 16    
Precipitation  
Precipitation T in 0.01 in 0.20 in (1972)
Month to date precipitation 0.15 0.17  
Year to date precipitation 4.84 2.39  
Snow  
Snow 0.00 in 0.00 in 0.00 in (2002)
Month to date snowfall 0.0 0.0  
Since 1 June snowfall 0.0 0.0  
Since 1 July snowfall 54.9 27.6  
Snow Depth 0.00 in    
Sea Level Pressure  
Sea Level Pressure 30.10 in    
Wind  
Wind Speed 8 mph (ESE)    
Max Wind Speed 32 mph    
Max Gust Speed 47 mph    
Visibility 10 miles    
Events Rain , Thunderstorm    
T = Trace of Precipitation, MM = Missing Value Source: NWS Daily Summary

Daily Weather History Graph

Daily Weather History Graph

Search for Another Location

Airport or City:

Astronomy

Jun. 12, 2019 Rise Set
Actual Time 5:42 AM MDT 8:24 PM MDT
Civil Twilight 5:11 AM MDT 8:55 PM MDT
Nautical Twilight 4:32 AM MDT 9:34 PM MDT
Astronomical Twilight 3:48 AM MDT 10:18 PM MDT
Moon 3:41 PM MDT (6/12) 2:50 AM MDT (6/12)
Length of Visible Light 15h 44m
Length of Day
14h 42m
Waxing Gibbous, 77% of the Moon is Illuminated
Jun 12
Waxing Gibbous
Jun 17
Full
Jun 25
Last Quarter
Jul 2
New
Jul 9
First Quarter

Hourly Weather History & Observations

Time (MDT) Temp. Windchill Dew Point Humidity Pressure Visibility Wind Dir Wind Speed Gust Speed Precip Events Conditions
12:52 AM 54.0 °F - 35.1 °F 49% 30.07 in 10.0 mi East 19.6 mph 28.8 mph N/A   Clear
1:52 AM 52.0 °F - 36.0 °F 54% 30.06 in 10.0 mi ESE 13.8 mph - N/A   Clear
2:52 AM 48.0 °F - 35.1 °F 61% 30.08 in 10.0 mi SSE 5.8 mph - N/A   Clear
3:52 AM 42.1 °F 39.2 °F 34.0 °F 73% 30.10 in 10.0 mi SSW 4.6 mph - N/A   Clear
4:52 AM 39.0 °F 35.7 °F 34.0 °F 82% 30.12 in 10.0 mi ENE 4.6 mph - N/A   Clear
5:52 AM 37.9 °F 32.7 °F 34.0 °F 86% 30.15 in 10.0 mi ESE 6.9 mph - N/A   Clear
6:52 AM 46.0 °F - 36.0 °F 68% 30.14 in 10.0 mi North - - N/A   Clear
7:52 AM 53.1 °F - 35.1 °F 50% 30.14 in 10.0 mi North - - N/A   Clear
8:52 AM 57.0 °F - 36.0 °F 45% 30.14 in 10.0 mi North - - N/A   Clear
9:52 AM 61.0 °F - 34.0 °F 36% 30.13 in 10.0 mi ENE 5.8 mph - N/A   Clear
10:52 AM 66.9 °F - 28.9 °F 24% 30.09 in 10.0 mi East 8.1 mph - N/A   Clear
11:52 AM 69.1 °F - 30.0 °F 23% 30.08 in 10.0 mi East 5.8 mph - N/A   Clear
12:52 PM 73.0 °F - 26.1 °F 17% 30.06 in 10.0 mi Variable 3.5 mph - N/A   Clear
1:52 PM 73.9 °F - 28.0 °F 18% 30.04 in 10.0 mi SSW 10.4 mph 17.3 mph N/A   Clear
2:52 PM 75.0 °F - 28.0 °F 18% 30.03 in 10.0 mi Variable 5.8 mph 18.4 mph N/A   Clear
3:52 PM 78.1 °F - 28.0 °F 16% 30.01 in 10.0 mi South 8.1 mph 18.4 mph N/A   Clear
4:52 PM 75.9 °F - 28.9 °F 18% 30.00 in 10.0 mi SE 13.8 mph - N/A   Mostly Cloudy
5:30 PM 73.9 °F - 27.0 °F 18% 30.22 in 10.0 mi SSW 20.7 mph 31.1 mph N/A   Scattered Clouds
5:52 PM 73.0 °F - 27.0 °F 18% 30.01 in 10.0 mi SSE 6.9 mph - N/A   Mostly Cloudy
6:18 PM 71.1 °F - 30.0 °F 22% 30.25 in 10.0 mi North 17.3 mph 26.5 mph N/A   Overcast
6:52 PM 70.0 °F - 30.9 °F 24% 30.04 in 10.0 mi ENE 15.0 mph 33.4 mph 0.00 in Rain Light Rain
7:21 PM 66.9 °F - 34.0 °F 30% 30.24 in 10.0 mi North 15.0 mph 36.8 mph 0.00 in Rain Light Rain
7:52 PM 66.9 °F - 35.1 °F 31% 29.98 in 10.0 mi South 5.8 mph - 0.00 in   Overcast
8:08 PM 66.0 °F - 35.1 °F 32% 30.24 in 10.0 mi SSE 3.5 mph - N/A Thunderstorm Mostly Cloudy
8:23 PM 68.0 °F - 30.9 °F 25% 30.25 in 10.0 mi NNE 10.4 mph - N/A   Overcast
8:40 PM 66.9 °F - 32.0 °F 27% 30.26 in 10.0 mi NNE 8.1 mph - N/A Thunderstorm Overcast
8:52 PM 68.0 °F - 33.1 °F 27% 29.99 in 10.0 mi NW 13.8 mph 20.7 mph N/A   Overcast
9:52 PM 64.0 °F - 35.1 °F 34% 30.01 in 10.0 mi Calm Calm - N/A   Scattered Clouds
10:27 PM 62.1 °F - 37.0 °F 39% 30.28 in 10.0 mi SE 9.2 mph - N/A   Mostly Cloudy
10:35 PM 61.0 °F - 39.0 °F 44% 30.28 in 10.0 mi SE 10.4 mph - N/A   Scattered Clouds
10:52 PM 59.0 °F - 42.1 °F 53% 30.01 in 10.0 mi SE 8.1 mph - N/A   Clear
11:52 PM 57.0 °F - 42.1 °F 57% 30.00 in 10.0 mi ESE 12.7 mph - N/A   Clear